Regional Weather Roundup
Issued by NWS Charleston, SC

Current Version | Previous Version | Graphics & Text | Print | Product List | Glossary On
Versions: 1 2 3 4 5 6 7 8 9 10 11 12 13 14 15 16 17 18 19 20 21 22 23 24 25 26 27 28 29 30 31 32 33 34 35 36 37 38 39 40 41 42 43 44 45 46 47 48 49 50
000
ASUS42 KCHS 241243
RWRCHS

REGIONAL WEATHER ROUNDUP
NATIONAL WEATHER SERVICE CHARLESTON SC
800 AM EDT SUN SEP 24 2017

NOTE: "FAIR" INDICATES FEW OR NO CLOUDS BELOW 12,000 FEET WITH NO
SIGNIFICANT WEATHER AND/OR OBSTRUCTIONS TO VISIBILITY.

NOT ALL STATIONS ARE QUALITY CONTROLLED. USE DATA WITH CAUTION...
ESPECIALLY DEWPOINT OBSERVATIONS.

SCZ027-030-031-034>040-042>050-241300-
...SOUTHEAST SOUTH CAROLINA...

CITY           SKY/WX    TMP DP  RH WIND       PRES   REMARKS
N CHARLESTON   PTCLDY    70  69  97 N8        30.02R
6HR MIN TEMP:  69; 6HR MAX TEMP:  71;

WATERFRONT PRK   N/A     73  71  93 N12       29.84R
JOHNS ISLAND   FAIR      73  72  94 N6        30.01S
PINOPOLIS        N/A     73  70  88 NE13      29.94R
MONCKS CORNER  FAIR      70  68  94 NE7       30.03R
SUMMERVILLE    FAIR      68  68 100 N3        30.03S
BEAUFORT MCAS  PTCLDY    72  71  97 N8        30.01R
6HR MIN TEMP:  71; 6HR MAX TEMP:  74;

BEAUFORT ARPT  FAIR      72  70  94 NE13      30.01R FOG
HILTON HEAD IS NOT AVBL
WALTERBORO     SUNNY     70  68  94 NE5       30.04R
ALLENDALE      NOT AVBL

...SOUTHERN MIDLANDS AND PEE DEE...

CITY           SKY/WX    TMP DP  RH WIND       PRES   REMARKS
GEORGETOWN     FAIR      70  70 100 N6        30.02S
KINGSTREE      FAIR      64  64 100 CALM      30.05R
ORANGEBURG     CLEAR     66  63  90 NE6       30.05R
6HR MIN TEMP:  64; 6HR MAX TEMP:  68;

BARNWELL       FAIR      68  68 100 CALM      30.06R
AIKEN          FAIR      64  63  94 CALM      30.10R
MANNING        FAIR      66  59  77 MISG      30.05R
COLUMBIA       PTCLDY    66  61  84 CALM      30.06R
6HR MIN TEMP:  64; 6HR MAX TEMP:  68;

SUMTER         PTCLDY    66  62  86 NE5       30.04R
6HR MIN TEMP:  64; 6HR MAX TEMP:  66;

FLORENCE       CLEAR     67  66  97 N7        30.06R
6HR MIN TEMP:  65; 6HR MAX TEMP:  69;

MYRTLE BEACH   MOSUNNY   71  68  90 N9        30.03R
N MYRTLE BEACH CLOUDY    71  68  90 N6        30.01R
6HR MIN TEMP:  70; 6HR MAX TEMP:  71;


$$

GAZ063-065-086>088-099>101-113>116-118-119-134>141-150-241300-
...SOUTHEAST GEORGIA...

CITY           SKY/WX    TMP DP  RH WIND       PRES   REMARKS
SAVANNAH ARPT  PTCLDY    70  69  97 N7        30.01R
6HR MIN TEMP:  69; 6HR MAX TEMP:  71;

HUNTER AAF     CLEAR     71  69  91 N6        29.98R
6HR MIN TEMP:  71; 6HR MAX TEMP:  74;

FORT STEWART   MOCLDY    70  68  92 NE6       29.98R
6HR MIN TEMP:  69; 6HR MAX TEMP:  70;

STATESBORO     CLOUDY    70  70  98 NE5       30.03R
SYLVANIA       PTSUNNY   70  69  98 NE5       30.04S
CLAXTON        FAIR      72  70  93 N3        30.02R

...CSRA...CENTRAL AND FAR SOUTHEAST GEORGIA...

CITY           SKY/WX    TMP DP  RH WIND       PRES   REMARKS
THOMSON        CLOUDY    66  64  91 CALM      30.12R
AUGUSTA-BUSH   CLEAR     68  65  90 N3        30.04R
6HR MIN TEMP:  64; 6HR MAX TEMP:  68;

AUGUSTA-DANIEL CLEAR     69  64  84 N5        30.06R
SWAINSBORO     FAIR      70  70 100 NE6       30.05R
VIDALIA        CLOUDY    70  70 100 N6        30.04R
EASTMAN        FAIR      69  68  98 CALM      30.06R FOG
HAZLEHURST     FAIR      71  70  94 N3        30.02R
ALMA           CLOUDY    72  70  93 VRB3      29.99R FOG
6HR MIN TEMP:  69; 6HR MAX TEMP:  72;

WAYCROSS       CLOUDY    73  69  89 NE8       29.99R
JESUP          NOT AVBL
BAXLEY         FAIR      70  70 100 NE6       30.01R
BRUNSWICK      CLOUDY    73  70  88 N6        29.98S
SAINT SIMONS   CLOUDY    78  73  84 NE7       29.96R
6HR MIN TEMP:  76; 6HR MAX TEMP:  80;


$$

SCZ027-028-034-036>038-045-046-048>050-GAZ119-141-241300-
...LAKE AND SUPPLEMENTAL COASTAL OBSERVATIONS...

STATION/POSITION TIME  TEMP    WIND        PRES    WAVE   SWELL
                       AIR SEA DIR/SP/G            HT/PER HT/PER/DIR
                 (UTC) (F)     (DEG/KT/KT) (MB)    (FT/S) (FT/S/D)
WINYAH BAY       1145   71     360/  6     1016.0S
LAKE MURRAY      NOT AVBL
ACE BASIN NERRS  1145   70     360/  2     1016.0R
FORT PULASKI     1200   74 80   10/ 10/ 12 1016.0
SAPELO ISLAND    1200   75        CALM     1015.0

$$

ANZ835-935-AMZ111-154-330-350-352-354-370-450-454-472-241300-
...C-MAN AND BUOY OBSERVATIONS...

STATION/POSITION TIME  TEMP    WIND        PRES    WAVE   SWELL
                       AIR SEA DIR/SP/G            HT/PER HT/PER/DIR
                 (UTC) (F)     (DEG/KT/KT) (MB)    (FT/S) (FT/S/D)
BUOY 41004       1210   79 82   30/ 19/ 21 1014.3
BUOY 41008       1150   80 80   50/ 16/ 19 1013.9R   6/ 6   3/170/12
FOLLY BEACH CMAN 1200   74      20/ 13/ 16 1016.4R
CAPERS NEARSHORE 1208   73 80   20/ 14/ 19 1015.4R
FRIPP NEARSHORE  1208   77      30/ 14/ 17 1020.8R


STATION/POSITION TIME  TEMP    WIND        PRES    WAVE   SWELL
                       AIR SEA DIR/SP/G            HT/PER HT/PER/DIR
                 (UTC) (F)     (DEG/KT/KT) (MB)    (FT/S) (FT/S/D)
5E ST. MARYS GA  1130      81                N/A     6/14   3/120/14
FRYING PAN BUOY  1210   78 82   40/ 19/ 25 1014.6
BUOY 41025       1150   74 74   30/ 17/ 19 1015.7R   7/14   7/150/14
CAPE LOOKOUT NC  1200   76      40/ 19/ 22 1015.9R
BUOY 41002       1150   79 79   40/ 23/ 29 1010.0R  16/14  13/130/14
BUOY 41010       1210           40/ 16/ 19 1012.0
ST AUGUSTINE FL  1200   81 81   50/ 16/ 17 1013.5R


$$




USA.gov is the U.S. government's official web portal to all federal, state and local government web resources and services.